Other Public Products
Issued by NWS Grand Forks, ND

Home | Current Version | Previous Version | Text Only | Print | Product List | Glossary Off
Versions: 1 2 3 4 5 6 7 8 9 10 11 12 13 14 15 16 17 18 19 20 21 22 23 24 25 26 27 28 29 30 31 32 33 34 35 36 37 38 39 40 41 42 43 44 45 46 47 48 49 50

000
FPUS83 KFGF 260431
OPUFGF
PRAIRIE TO PINES WEATHER ROUNDUP
NATIONAL WEATHER SERVICE EASTERN NORTH DAKOTA/GRAND FORKS ND
1100 PM CDT MON SEP 25 2017

 **SATELLITE DATA USED TO AUGMENT SKY COVER AT AUTOMATED STATIONS**
 *****  WEATHER ACROSS EASTERN NORTH DAKOTA  *****

CITY           SKY/WX    TMP DP  RH WIND       PRES   REMARKS
GRAND FORKS    CLOUDY    51  48  89 N7        30.11R
GRAND FORKS AF CLOUDY    50  45  83 N7        30.11S
GRAND CITY NWS NOT AVBL
BUXTON           N/A    N/A N/A N/A CALM        N/A
DEVILS LAKE    FAIR      44  41  89 NE6       30.13S
FARGO          LGT RAIN  51  50  96 N9        30.07F
WAHPETON ARPT  CLOUDY    50  46  87 N9        30.05F
$$

 *****  WEATHER ACROSS CENTRAL AND WESTERN NORTH DAKOTA  *****

CITY           SKY/WX    TMP DP  RH WIND       PRES   REMARKS
JAMESTOWN      CLOUDY    48  44  86 NE7       30.10F
BISMARCK       CLOUDY    47  45  93 SE5       30.14R
MINOT          CLOUDY    51  43  74 CALM      30.12F
MINOT AFB      CLOUDY    48  44  86 CALM      30.11F
GARRISON         N/A     48  44  86 NE5       30.12S
WILLISTON      LGT RAIN  48  46  93 E3        30.12F FOG
DICKINSON      CLOUDY    45  44  97 E6        30.09S
HETTINGER      CLOUDY    44  41  89 E3        30.12S
$$

 *****  OTHER OBSERVATIONS NORTHEAST NORTH DAKOTA  *****

CITY           SKY/WX    TMP DP  RH WIND       PRES   REMARKS
WALHALLA       FAIR     N/A N/A N/A NE7       30.14S
LANGDON        CLOUDY    46  46 100 NE9       30.13F
CAVALIER       CLOUDY    50  46  87 N6        30.13S
GRAFTON        CLOUDY    50  48  93 N9        30.13S
CANDO          FAIR      43  43 100 NE5       30.15S
FORT TOTTEN      N/A     48  42  80 E3        29.95S
ROLLA          MOCLDY    43  43 100 CALM      30.15R
RUGBY          CLOUDY    46  45  93 E6        30.13R
 ***** THE ABOVE OBSERVATIONS ARE NON NWS ARE NOT QUALITY
        CONTROLLED AND MAY MIS-REPORT RAIN FOR SNOW...
$$

 *****  OTHER OBSERVATIONS SOUTHEAST NORTH DAKOTA *****

CITY           SKY/WX    TMP DP  RH WIND       PRES   REMARKS
COOPERSTOWN    CLOUDY    48  46  93 NE10      30.10F
VALLEY CITY    CLOUDY    48  48 100 N7        30.11S
OAKES          NOT AVBL
GWINNER        CLOUDY    50  46  87 CALM      30.09R
SHEYENNE NWR     N/A     50  49  96 N6        29.95S
BUFFALO          N/A     49  44  81 W9          N/A
WYNDMERE       NOT AVBL
 ***** THE ABOVE OBSERVATIONS ARE NON NWS ARE NOT QUALITY
       CONTROLLED AND MAY MIS-REPORT RAIN FOR SNOW...
$$

  *****  WEATHER ACROSS NORTHERN MINNESOTA  *****

CITY           SKY/WX    TMP DP  RH WIND       PRES   REMARKS
FLAG ISLAND    FAIR      52  46  82 NE8       30.10R
WARROAD        CLOUDY    50  46  87 N6        30.10F
ROSEAU           N/A     50  45  81 N6        30.11S
HALLOCK          N/A     52  48  87 N7        30.12S
THF RVR FALLS  CLOUDY    50  48  93 NE8       30.10S
HALSTAD          N/A     50  48  93 N8          N/A
FOSSTON        CLOUDY    48  46  93 N7        30.09S
BAUDETTE       FAIR      50  48  93 NE7       30.08F
WASKISH        FAIR      50  48  93 NE3       30.07S
CROOKSTON      FAIR      52  48  87 N5        30.10F
$$
  *****  WEATHER ACROSS CENTRAL AND WEST MINNESOTA  *****

CITY           SKY/WX    TMP DP  RH WIND       PRES   REMARKS
BEMIDJI        LGT RAIN  50  48  94 N5        30.06R
PARK RAPIDS    LGT RAIN  53  49  86 N8        30.05R
WADENA         LGT RAIN  52  52 100 NW3       30.04R
DETROIT LAKES  LGT RAIN  50  50 100 N5        30.06F
MOORHEAD       DRIZZLE   50  48  93 N7        30.07F
FERGUS FALLS   DRIZZLE   52  52 100 N6        30.05F
ELBOW LAKE     RAIN      51  51 100 N6        30.03F
MORRIS MN      NOT AVBL
STAPLES        DRIZZLE   52  52 100 CALM      30.02S
WHEATON        LGT RAIN  50  48  93 NW6       30.06F
$$
  *****  WEATHER ELSEWHERE ACROSS MINNESOTA  *****

CITY           SKY/WX    TMP DP  RH WIND       PRES   REMARKS
DULUTH         CLOUDY    55  55 100 N10       29.99F
INTRNTL FALLS  CLOUDY    52  48  86 E6        30.06F
ELY            DRIZZLE   54  52  94 NE5       30.04S
CLOQUET        RAIN      55  52  88 N6        30.00S
BRAINERD       LGT RAIN  53  52  96 NE9       30.01F
HIBBING        LGT RAIN  52  51  97 N6        30.03F
ALEXANDRIA     RAIN      53  52  96 N6        30.04S FOG
SAINT CLOUD    CLOUDY    55  55 100 CALM      30.00S
MINNEAPOLIS    CLOUDY    59  58  96 NW8       29.97S
$$

  *****  WEATHER ACROSS SOUTH DAKOTA  *****

CITY           SKY/WX    TMP DP  RH WIND       PRES   REMARKS
SIOUX FALLS    DRIZZLE   53  52  96 N8        30.01S
BROOKINGS      LGT RAIN  50  48  93 N8        30.03F FOG
WATERTOWN      RAIN      48  48 100 NW9       30.04S FOG
HURON          RAIN      49  49 100 N8        30.08S FOG
SISSETON         N/A     50  50 100 NW8       30.05F
ABERDEEN       LGT RAIN  49  47  93 NE6       30.11R
MITCHELL       CLOUDY    51  50  96 N9        30.07F
PIERRE         CLOUDY    50  45  83 E3        30.12R
MOBRIDGE       CLOUDY    50  44  80 NE5       30.09F
RAPID CITY     CLOUDY    48  43  81 S6        30.12R
$$

  *****  SOME WEATHER IN NEARBY STATES *****

CITY           SKY/WX    TMP DP  RH WIND       PRES   REMARKS
GLASGOW MT     CLOUDY    46  40  79 SE8       30.07F
GREAT FALLS MT CLOUDY    53  35  50 E9        30.04R
CHEYENNE WY    MOCLDY    42  39  89 CALM      30.15S
SCOTTSBLUFF NE MOCLDY    47  42  83 E7        30.11F
OMAHA NE       LGT RAIN  59  56  89 W5        29.97R FOG
DES MOINES IA  CLOUDY    67  66  97 E6        29.92R
DAVENPORT IA   MOCLDY    73  65  75 S3        29.93S
CHICAGO IL     FAIR      76  58  53 S5        29.93S
EAU CLAIRE WI  CLOUDY    63  61  93 CALM      29.94F
LA CROSSE WI   MOCLDY    69  67  93 SE6       29.93F
$$

  *****  SOME NATIONAL WEATHER *****

CITY           SKY/WX    TMP DP  RH WIND       PRES   REMARKS
LA GUARDIA NY  FAIR      71  66  84 CALM      30.02F
RALEIGH NC     MOCLDY    72  68  87 NE6       29.94F
ATLANTA GA     FAIR      74  62  66 CALM      29.98R
NEW ORLEANS LA FAIR      79  71  76 NE3       29.88S
OKLAHOMA CITY  CLOUDY    70  68  93 NE6       29.93R
ALBUQUERQUE NM FAIR      65   7  10 N7        29.98R
SALT LAKE CITY FAIR      50  38  63 S5        30.12S
LOS ANGELES CA FAIR      70  55  59 W9        29.79R
BOISE ID       CLOUDY    58  38  47 CALM      30.08R
SEATTLE WA     CLOUDY    63  53  70 CALM      30.12S
$$

*** WEATHER ACROSS MANITOBA...SASKATCHEWAN AND ONTARIO ***
                ***ONTARIO***

CITY           SKY/WX    TMP DP  RH WIND       PRES   REMARKS
GERALDTON      DRIZZLE   48  46  93 NE8       30.10S
THUNDER BAY    LGT RAIN  54  48  82 N3        30.04F
SIOUX LOOKOUT  CLOUDY    48  46  93 CALM      30.11F
TORONTO        PTCLDY    73  66  78 NE2       30.00F
BIG TROUT LK   MOCLDY    39 N/A N/A N3        30.22S
PICKLE LAKE    NOT AVBL
DRYDEN         CLOUDY    48  48 100 NE10      30.11F FOG
KENORA         CLOUDY    50  46  87 NE7       30.11F
$$
                *** MANITOBA***

CITY           SKY/WX    TMP DP  RH WIND       PRES   REMARKS
BRANDON        MOCLDY    48  41  76 SE5       30.15F
DAUPHIN        CLEAR     37  37 100 CALM      30.16S
ISLAND LAKE    NOT AVBL
PILOT MOUND      N/A     43  39  87 NE5         N/A
THE PAS        CLEAR     46  41  81 SE12      30.09F
THOMPSON       PTCLDY    37  32  81 E3        30.16S
WINNIPEG       MOCLDY    48  43  81 NE6       30.15F
LYNN LAKE      LGT RAIN  46  41  81 S12       30.03F
CHURCHILL      CLEAR     36  30  80 S10       30.18F
GILLAM         CLEAR     30  27  86 SE5       30.21S
$$
                ***SASKATCHEWAN***

CITY           SKY/WX    TMP DP  RH WIND       PRES   REMARKS
ESTEVAN        CLOUDY    48  45  87 S6        30.13S
KINDERSLEY     CLOUDY    52  34  50 S3        29.96S
LLOYDMINSTER   MOCLDY    55  45  67 S8        29.92S
PRINCE ALBERT  CLOUDY    55  36  47 S10G18    30.02R
REGINA         PTCLDY    46  37  71 S13       30.09F
YORKTON        CLOUDY    50  39  66 S6        30.12F



USA.gov is the U.S. government's official web portal to all federal, state and local government web resources and services.